| time (UTC) | temp F | wind direction | speed MPH | gust MPH | rain 1hr in | rain 24hr in | rain mn in | humidity % | barometer mb |
| 20260505224501 | 70 | 194 | 19.0 | 32.0 | 0.00 | 0.00 | 0.00 | 27 | 1010.1 |
| 20260505223057 | 69 | 188 | 22.0 | 30.0 | 0.00 | 0.00 | 0.00 | 28 | 1010.4 |
| 20260505221603 | 70 | 219 | 22.0 | 34.0 | 0.00 | 0.00 | 0.00 | 31 | 1010.6 |
| 20260505220054 | 68 | 232 | 18.0 | 26.0 | 0.00 | 0.00 | 0.00 | 33 | 1011.0 |
| 20260505214542 | 68 | 240 | 20.0 | 28.0 | 0.00 | 0.00 | 0.00 | 33 | 1011.1 |
| 20260505213046 | 67 | 218 | 18.0 | 30.0 | 0.00 | 0.00 | 0.00 | 36 | 1011.3 |
| 20260505211543 | 68 | 209 | 20.0 | 31.0 | 0.00 | 0.00 | 0.00 | 36 | 1011.3 |
| 20260505210038 | 68 | 207 | 19.0 | 37.0 | 0.00 | 0.00 | 0.00 | 36 | 1011.4 |
| 20260505204537 | 67 | 212 | 17.0 | 28.0 | 0.00 | 0.00 | 0.00 | 38 | 1011.8 |
| 20260505203041 | 68 | 209 | 19.0 | 28.0 | 0.00 | 0.00 | 0.00 | 37 | 1012.0 |
| 20260505201535 | 68 | 216 | 20.0 | 30.0 | 0.00 | 0.00 | 0.00 | 36 | 1012.2 |
| 20260505194556 | 67 | 226 | 22.0 | 29.0 | 0.00 | 0.00 | 0.00 | 38 | 1012.4 |
| 20260505193014 | 67 | 223 | 20.0 | 28.0 | 0.00 | 0.00 | 0.00 | 38 | 1012.4 |
| 20260505191615 | 67 | 214 | 17.0 | 27.0 | 0.00 | 0.00 | 0.00 | 39 | 1012.3 |
| 20260505184519 | 66 | 219 | 17.0 | 30.0 | 0.00 | 0.00 | 0.00 | 38 | 1012.9 |
| 20260505183131 | 65 | 228 | 15.0 | 23.0 | 0.00 | 0.00 | 0.00 | 38 | 1013.0 |
| 20260505181548 | 64 | 225 | 13.0 | 17.0 | 0.00 | 0.00 | 0.00 | 40 | 1013.1 |
| 20260505174544 | 63 | 223 | 13.0 | 19.0 | 0.00 | 0.00 | 0.00 | 38 | 1013.5 |
| 20260505173007 | 62 | 225 | 12.0 | 18.0 | 0.00 | 0.00 | 0.00 | 39 | 1013.8 |
| 20260505171559 | 61 | 230 | 12.0 | 16.0 | 0.00 | 0.00 | 0.00 | 40 | 1013.8 |
| 20260505164523 | 61 | 214 | 12.0 | 17.0 | 0.00 | 0.00 | 0.00 | 41 | 1013.5 |
| 20260505163119 | 61 | 217 | 13.0 | 17.0 | 0.00 | 0.00 | 0.00 | 41 | 1013.5 |
| 20260505161539 | 61 | 221 | 9.0 | 14.0 | 0.00 | 0.00 | 0.00 | 41 | 1013.5 |
| 20260505153045 | 59 | 197 | 10.0 | 14.0 | 0.00 | 0.00 | 0.00 | 47 | 1013.7 |
| 20260505151539 | 59 | 205 | 10.0 | 17.0 | 0.00 | 0.00 | 0.00 | 49 | 1013.9 |
| 20260505124524 | 58 | 228 | 5.0 | 8.0 | 0.00 | 0.00 | 0.00 | 48 | 1013.5 |
| 20260505123023 | 58 | 232 | 5.0 | 8.0 | 0.00 | 0.00 | 0.00 | 48 | 1013.3 |
| 20260505121522 | 58 | 228 | 4.0 | 7.0 | 0.00 | 0.00 | 0.00 | 47 | 1013.3 |
| 20260505120035 | 59 | 228 | 7.0 | 10.0 | 0.00 | 0.00 | 0.00 | 46 | 1013.3 |
| 20260505114521 | 59 | 223 | 7.0 | 10.0 | 0.00 | 0.00 | 0.00 | 45 | 1013.3 |
| 20260505113019 | 59 | 205 | 7.0 | 11.0 | 0.00 | 0.00 | 0.00 | 46 | 1013.4 |
| 20260505111529 | 60 | 228 | 9.0 | 16.0 | 0.00 | 0.00 | 0.00 | 44 | 1013.5 |
| 20260505101512 | 59 | 232 | 7.0 | 10.0 | 0.00 | 0.00 | 0.00 | 47 | 1013.3 |
| 20260505100010 | 58 | 232 | 6.0 | 9.0 | 0.00 | 0.00 | 0.00 | 50 | 1013.3 |
| 20260505094508 | 58 | 229 | 3.0 | 6.0 | 0.00 | 0.00 | 0.00 | 54 | 1013.0 |
| 20260505093004 | 59 | 232 | 5.0 | 7.0 | 0.00 | 0.00 | 0.00 | 53 | 1013.4 |
| 20260505091501 | 60 | 230 | 7.0 | 9.0 | 0.00 | 0.00 | 0.00 | 46 | 1013.5 |
| 20260505090123 | 60 | 245 | 4.0 | 8.0 | 0.00 | 0.00 | 0.00 | 46 | 1013.5 |
| 20260505084615 | 61 | 253 | 6.0 | 9.0 | 0.00 | 0.00 | 0.00 | 45 | 1013.4 |
| 20260505083111 | 60 | 255 | 6.0 | 10.0 | 0.00 | 0.00 | 0.00 | 46 | 1013.7 |
| 20260505081603 | 59 | 264 | 5.0 | 9.0 | 0.00 | 0.00 | 0.00 | 53 | 1013.8 |
| 20260505074549 | 62 | 277 | 8.0 | 12.0 | 0.00 | 0.00 | 0.00 | 44 | 1014.0 |
| 20260505073054 | 62 | 254 | 9.0 | 14.0 | 0.00 | 0.00 | 0.00 | 41 | 1013.8 |
| 20260505071549 | 62 | 230 | 7.0 | 13.0 | 0.00 | 0.00 | 0.00 | 41 | 1013.8 |
| 20260505070050 | 62 | 241 | 11.0 | 16.0 | 0.00 | 0.00 | 0.00 | 43 | 1013.7 |
| 20260505064539 | 63 | 240 | 7.0 | 11.0 | 0.00 | 0.00 | 0.00 | 39 | 1013.5 |
| 20260505063041 | 63 | 233 | 6.0 | 10.0 | 0.00 | 0.00 | 0.00 | 36 | 1013.4 |
| 20260505061534 | 63 | 226 | 8.0 | 13.0 | 0.00 | 0.00 | 0.00 | 34 | 1013.2 |
| 20260505060051 | 63 | 180 | 5.0 | 9.0 | 0.00 | 0.00 | 0.00 | 33 | 1013.3 |
| 20260505054531 | 64 | 185 | 4.0 | 7.0 | 0.00 | 0.00 | 0.00 | 32 | 1013.4 |
| 20260505053029 | 64 | 239 | 5.0 | 9.0 | 0.00 | 0.00 | 0.00 | 31 | 1013.5 |
| 20260505051530 | 65 | 229 | 5.0 | 11.0 | 0.00 | 0.00 | 0.00 | 30 | 1013.6 |
| 20260505041532 | 67 | 229 | 8.0 | 16.0 | 0.00 | 0.00 | 0.00 | 26 | 1013.6 |
| 20260505040026 | 68 | 279 | 12.0 | 20.0 | 0.00 | 0.00 | 0.00 | 23 | 1013.5 |
| 20260505034525 | 69 | 246 | 10.0 | 16.0 | 0.00 | 0.00 | 0.00 | 21 | 1013.3 |
| 20260505033024 | 69 | 240 | 7.0 | 13.0 | 0.00 | 0.00 | 0.00 | 20 | 1012.9 |
| 20260505031524 | 70 | 230 | 11.0 | 17.0 | 0.00 | 0.00 | 0.00 | 18 | 1012.6 |
| 20260505030023 | 70 | 216 | 11.0 | 17.0 | 0.00 | 0.00 | 0.00 | 18 | 1012.1 |
| 20260505024522 | 71 | 204 | 14.0 | 23.0 | 0.00 | 0.00 | 0.00 | 17 | 1011.6 |
| 20260505023022 | 71 | 197 | 12.0 | 19.0 | 0.00 | 0.00 | 0.00 | 18 | 1011.6 |
| 20260505021521 | 71 | 205 | 11.0 | 18.0 | 0.00 | 0.00 | 0.00 | 17 | 1011.4 |
| 20260505020033 | 71 | 182 | 13.0 | 20.0 | 0.00 | 0.00 | 0.00 | 16 | 1011.1 |
| 20260505014531 | 71 | 219 | 13.0 | 19.0 | 0.00 | 0.00 | 0.00 | 16 | 1011.1 |
| 20260505013023 | 71 | 197 | 10.0 | 16.0 | 0.00 | 0.00 | 0.00 | 16 | 1011.1 |
| 20260505011520 | 71 | 200 | 10.0 | 17.0 | 0.00 | 0.00 | 0.00 | 18 | 1011.2 |
| 20260505010016 | 72 | 171 | 12.0 | 20.0 | 0.00 | 0.00 | 0.00 | 19 | 1011.3 |
| 20260505004516 | 72 | 162 | 14.0 | 23.0 | 0.00 | 0.00 | 0.00 | 17 | 1011.3 |
| 20260505003014 | 73 | 197 | 12.0 | 20.0 | 0.00 | 0.00 | 0.00 | 18 | 1011.3 |
| 20260505001512 | 73 | 193 | 13.0 | 18.0 | 0.00 | 0.00 | 0.00 | 18 | 1011.5 |
| 20260505000012 | 74 | 193 | 9.0 | 22.0 | 0.00 | 0.00 | 0.00 | 18 | 1011.7 |
| 20260504234508 | 74 | 226 | 14.0 | 22.0 | 0.00 | 0.00 | 0.00 | 18 | 1011.8 |
| 20260504233007 | 74 | 223 | 16.0 | 22.0 | 0.00 | 0.00 | 0.00 | 18 | 1012.0 |
| 20260504231506 | 74 | 205 | 13.0 | 24.0 | 0.00 | 0.00 | 0.00 | 19 | 1012.1 |